Theta_e
322 321 320 320 320 320 321 322 322 323 323 325 325 326 327 327 327 330 322 331 350 364 364 355 354 351 352 343 344 348 331 321 323 323 326 331 328 330 333 330 332 333 336 334 335
322 322 321 321 321 322 321 321 322 322 323 323 325 326 327 328 328 322 337 359 364 367 355 349 344 348 341 342 340 339 328 325 330 330 330 331 329 328 328 328 328 332 337 336 336
321 320 319 320 320 321 321 321 321 321 322 322 325 326 327 329 322 322 356 364 366 365 355 348 346 341 340 341 335 333 327 330 331 332 334 332 330 330 328 326 329 330 333 336 337
319 320 319 319 319 320 320 320 320 320 321 322 324 327 328 330 312 342 362 367 367 361 350 344 340 337 330 328 333 327 331 333 333 334 334 331 333 328 330 330 332 335 336 336 336
319 318 318 319 318 319 319 319 319 319 320 323 325 327 328 316 315 359 367 366 362 353 344 339 336 334 326 327 330 328 330 332 332 334 334 335 331 330 329 333 334 336 336 336 337
319 319 318 318 318 319 318 318 318 318 319 323 325 327 324 310 331 357 360 357 350 347 341 341 334 334 331 326 327 330 331 331 331 331 333 332 332 333 332 335 332 334 335 336 337
319 319 318 318 318 318 318 317 317 318 319 323 326 330 317 314 342 352 356 352 350 345 336 339 339 331 329 324 331 331 325 325 328 331 330 334 328 330 336 335 332 332 335 336 337
319 318 318 318 318 317 317 316 317 318 321 324 327 328 313 326 343 349 352 348 351 350 342 339 338 331 328 330 327 322 323 316 324 330 332 329 323 332 336 334 332 332 333 335 337
319 318 318 317 317 316 316 316 318 322 324 326 328 319 311 332 327 337 347 331 342 343 344 338 333 326 326 322 319 319 313 313 316 326 327 328 322 331 336 335 334 334 334 334 335
319 318 318 318 317 316 315 315 321 325 327 330 326 315 316 315 320 333 341 331 326 330 328 326 323 319 321 319 310 312 313 315 313 316 323 323 323 330 333 334 335 335 335 334 335
319 318 318 317 317 315 317 325 322 321 322 316 312 310 313 320 322 320 333 328 320 320 312 315 313 314 317 317 316 316 316 314 315 318 317 320 322 325 333 332 334 334 335 335 335
318 318 317 316 315 314 320 321 320 321 315 318 318 317 319 320 315 317 327 318 315 311 313 311 309 317 315 314 314 315 315 315 315 316 320 320 320 323 329 332 333 334 335 335 336
318 317 316 315 314 317 324 322 326 324 316 315 317 316 317 320 314 315 321 317 313 311 310 309 311 312 311 312 312 315 315 314 312 313 319 318 316 321 328 332 333 335 337 337 337
318 317 315 313 314 327 323 326 327 324 310 309 313 316 319 319 313 319 319 316 312 309 309 309 312 309 310 309 312 309 316 314 313 310 307 315 306 316 323 325 330 332 334 336 338
317 316 314 309 324 323 325 327 325 321 301 312 314 321 318 314 314 313 318 316 311 310 310 308 308 308 308 309 311 309 314 313 313 311 310 314 309 315 318 316 319 326 333 336 338
315 314 313 317 325 325 327 327 321 310 299 310 313 312 311 313 312 313 314 317 315 311 311 310 313 311 311 313 313 312 310 311 312 311 304 309 308 309 312 315 317 323 329 335 338
313 310 313 321 324 327 328 324 311 304 312 309 310 312 311 309 310 311 310 310 308 305 305 308 309 312 314 313 314 312 309 303 302 303 303 309 307 310 315 318 322 323 327 335 338
309 309 315 324 329 327 326 318 304 307 309 313 312 311 309 310 310 309 309 308 312 309 307 305 303 311 315 313 311 310 309 303 298 299 303 308 304 311 316 323 328 327 334 334 338
308 327 331 330 328 329 322 310 309 309 311 310 312 309 309 311 311 310 311 311 312 311 308 308 306 314 314 315 314 310 307 310 305 306 302 305 308 313 318 324 329 332 334 334 337
331 331 329 329 329 325 319 306 313 315 315 313 308 311 308 310 310 311 311 314 312 314 316 312 306 312 313 314 314 312 312 305 306 299 297 302 304 307 316 323 330 332 334 335 338
329 323 327 326 326 323 315 314 314 317 315 313 310 310 310 310 312 311 311 313 314 314 316 314 311 310 313 310 308 309 309 309 308 305 300 299 305 317 320 326 331 333 336 337 338
326 316 326 327 318 320 317 314 305 314 317 315 315 313 311 311 311 311 310 312 314 316 312 314 311 307 308 311 312 310 309 310 305 304 306 304 304 322 325 329 334 335 338 338 342
322 322 328 325 313 315 313 312 313 313 314 314 313 314 315 312 309 311 312 312 313 314 314 315 310 304 306 308 311 309 310 310 310 310 306 303 307 317 326 330 336 336 338 339 342
321 316 320 323 321 314 312 311 311 312 312 314 314 315 313 311 314 310 310 311 311 314 317 315 311 307 303 307 309 306 308 310 309 305 306 307 309 314 319 326 332 334 335 338 342
319 313 314 315 315 314 312 311 309 309 312 314 312 312 312 309 310 309 311 312 312 312 312 312 307 309 310 309 309 307 307 308 307 308 305 308 309 314 316 324 330 331 332 336 337
317 316 321 318 315 314 307 311 309 309 311 310 310 310 311 310 310 308 310 311 310 312 312 311 306 307 305 307 307 304 306 307 307 307 308 309 309 317 321 331 334 332 331 331 333
323 323 317 308 313 312 315 312 310 312 312 313 311 311 309 311 314 315 315 314 312 310 310 309 307 306 302 306 304 300 305 306 306 308 307 305 310 318 320 327 334 336 332 331 334
Wind_Speed
14 14 14 14 14 14 15 15 13 14 14 15 14 14 15 11 9 7 6 7 9 21 12 16 9 8 9 5 6 4 6 8 7 5 8 11 9 6 7 14 8 6 13 26 22
15 14 14 14 15 15 15 15 14 14 15 15 15 14 13 14 8 11 9 14 26 19 17 15 10 10 6 3 4 7 5 8 6 4 8 13 9 13 10 14 10 13 20 27 24
15 15 14 14 14 15 15 15 14 13 14 15 16 15 13 15 8 5 7 17 25 19 12 7 5 8 6 3 3 3 6 4 4 4 8 12 8 10 15 12 15 21 25 27 25
15 15 14 14 14 14 15 15 14 13 13 14 16 15 15 7 4 8 6 20 20 15 10 6 5 7 4 6 3 4 2 1 2 3 9 12 11 10 13 11 16 22 27 28 27
15 15 14 14 14 14 14 14 13 12 12 14 15 15 9 8 1 9 14 15 17 10 9 6 6 8 8 8 5 4 3 3 3 5 6 10 12 9 12 10 19 23 26 27 25
15 14 15 14 14 13 13 13 13 12 11 12 13 15 7 9 4 11 15 20 11 11 6 5 5 9 7 8 6 7 8 7 1 5 6 9 9 7 15 12 20 24 27 26 26
16 15 14 14 14 13 13 13 12 12 12 11 10 7 7 3 4 8 13 14 6 8 2 1 6 8 10 7 6 6 8 1 2 5 5 7 7 11 10 17 20 23 23 24 24
17 16 15 14 14 13 13 13 13 12 12 10 8 6 4 3 1 8 9 8 5 5 5 3 7 7 6 8 6 5 7 5 5 6 5 7 7 12 9 18 19 21 20 22 24
17 16 15 13 13 13 14 14 12 10 8 4 7 7 4 3 6 9 9 3 9 6 7 8 8 6 5 8 11 3 8 10 7 3 4 8 3 6 11 17 18 18 20 20 21
15 15 13 12 12 13 12 9 2 7 7 6 4 7 5 6 6 8 8 5 4 6 8 8 7 9 8 9 8 10 10 12 10 3 7 7 7 12 12 16 17 17 18 19 20
16 14 12 11 10 9 8 5 8 8 7 6 3 4 4 2 4 7 8 10 6 7 9 5 10 11 10 10 8 10 12 14 11 9 5 7 8 6 14 14 16 16 17 19 20
18 14 11 11 10 6 7 5 6 6 1 2 4 5 5 3 5 10 11 12 9 11 5 8 13 14 5 8 10 12 14 13 8 8 7 7 12 8 9 13 14 16 17 18 18
19 14 10 9 6 4 5 4 3 3 3 6 2 2 2 7 2 10 14 9 9 9 10 13 8 5 9 12 12 16 14 12 14 14 4 10 9 6 8 7 10 14 15 18 19
19 14 10 9 4 1 4 1 7 6 4 7 6 5 6 4 5 5 9 5 7 8 5 10 4 9 10 12 14 16 15 8 12 12 7 5 7 3 7 7 7 11 16 17 20
18 13 9 6 7 4 5 5 1 6 2 3 6 3 1 5 3 6 4 7 10 6 8 5 4 6 9 7 11 14 6 7 9 14 9 13 8 4 10 6 6 3 14 18 20
18 12 6 5 4 3 4 4 6 8 6 5 3 4 7 6 4 5 7 5 3 6 8 12 2 6 7 10 7 4 8 8 8 10 11 1 6 11 8 7 6 6 5 17 21
19 8 7 3 3 5 6 6 8 4 3 4 3 4 3 6 6 4 9 10 6 8 4 6 9 2 6 12 6 9 14 8 9 11 11 7 8 11 9 11 10 10 8 13 20
16 4 8 4 6 7 6 8 4 2 5 2 1 5 3 1 4 5 6 8 4 8 6 4 11 5 2 7 10 7 11 10 8 9 10 4 7 4 6 8 10 6 5 9 19
9 4 4 3 3 4 8 2 4 3 4 5 4 4 8 5 3 6 1 3 5 4 8 3 6 6 2 3 6 5 9 9 12 10 11 14 2 10 4 10 10 10 6 4 15
4 3 3 3 6 7 6 4 3 4 5 3 2 4 1 4 6 6 3 3 2 5 6 4 6 4 5 5 6 8 7 9 9 10 11 7 3 6 11 12 11 11 7 5 5
5 4 5 6 5 7 1 5 2 3 4 5 1 2 4 2 2 1 2 5 2 2 4 6 6 2 7 1 9 6 10 7 8 7 11 9 2 10 7 8 11 10 9 5 3
5 5 5 3 5 1 2 1 1 1 1 1 2 4 4 2 1 1 1 5 4 3 5 5 9 11 7 2 1 6 6 11 8 8 7 9 5 7 6 7 8 9 8 6 7
4 3 2 5 5 4 4 4 2 3 1 2 2 3 1 2 4 2 1 5 5 3 6 3 7 9 6 12 10 9 1 6 8 9 13 10 1 4 6 5 6 8 10 8 6
5 3 3 3 2 5 3 3 5 2 2 1 1 3 4 3 2 1 4 3 2 3 5 4 13 10 11 10 8 9 10 9 11 11 10 8 9 2 7 5 4 7 8 9 8
4 5 4 1 4 2 4 1 4 4 1 1 3 4 4 4 4 4 2 4 6 5 4 8 13 9 12 11 13 14 16 15 14 14 15 15 7 9 7 5 4 3 5 6 7
5 5 1 2 2 5 4 2 3 3 3 4 7 3 2 4 4 5 6 6 8 3 9 6 11 8 15 17 17 18 19 19 19 18 19 16 18 15 2 2 6 4 2 5 7
3 1 5 3 3 6 1 1 1 2 3 2 2 5 6 3 6 9 10 11 11 9 12 11 12 9 15 9 10 13 19 18 17 18 15 15 14 9 7 7 9 8 5 5 5
Wind_Direction
330 330 326 324 322 321 322 326 329 328 329 328 330 328 323 327 297 217 256 94 164 168 174 151 162 171 187 236 241 241 251 56 63 37 122 154 137 104 103 137 155 205 143 154 161
328 328 324 321 320 319 318 320 324 327 327 326 325 326 322 324 273 257 98 139 148 176 167 172 180 182 218 231 205 264 344 33 14 78 136 169 151 137 147 146 135 133 131 140 159
328 326 323 320 318 316 316 317 320 325 325 323 322 322 317 310 273 71 139 156 158 186 173 196 173 222 255 260 81 10 8 24 48 28 142 163 158 159 155 163 154 151 145 155 169
328 323 323 320 318 316 315 313 316 321 319 318 318 318 314 249 262 26 138 158 165 194 181 192 195 255 297 18 55 276 4 315 58 132 158 167 160 180 181 157 151 158 156 164 175
329 324 320 320 319 315 312 312 314 317 317 315 316 317 289 227 359 97 131 150 174 199 205 234 275 317 3 351 338 306 346 264 121 171 192 177 182 173 191 155 149 159 164 173 179
329 325 322 321 317 313 311 309 310 311 310 308 311 309 258 243 58 125 153 167 188 199 210 249 345 338 300 333 330 337 309 307 169 191 166 194 194 201 195 165 159 167 175 180 186
332 327 326 320 317 313 309 306 304 302 296 298 297 289 254 0 23 151 168 188 185 214 249 312 314 295 333 314 15 303 305 141 174 171 172 200 196 211 181 176 173 178 181 186 191
335 330 326 322 316 310 305 301 296 288 284 279 269 251 273 44 110 170 172 186 203 227 277 320 335 272 276 310 269 291 225 49 109 178 121 222 31 183 171 179 186 186 186 189 191
333 332 327 321 314 309 305 298 283 267 242 240 224 252 147 141 197 176 198 193 191 216 243 295 280 297 233 274 268 184 347 17 85 182 152 223 16 152 180 189 195 194 191 195 193
331 332 321 318 315 310 300 275 171 179 192 215 270 231 175 114 124 146 185 204 196 194 231 233 237 261 235 254 336 327 340 334 353 76 238 253 278 153 191 194 205 195 192 196 198
333 332 326 320 316 305 282 187 201 174 207 326 71 331 138 68 163 188 173 199 213 233 232 223 257 243 295 349 320 303 302 310 3 12 277 262 285 278 181 203 192 196 195 194 202
337 335 328 324 320 298 256 287 34 356 208 183 250 264 261 281 170 155 181 195 206 234 201 231 249 268 349 286 281 280 287 296 326 33 297 315 295 278 187 202 203 195 193 198 194
336 330 328 321 324 223 274 24 353 284 247 118 156 267 99 212 143 153 195 215 229 232 235 261 294 353 281 274 257 268 275 310 323 322 226 312 251 132 114 179 199 206 203 195 193
332 328 322 323 254 104 222 82 294 239 163 119 156 112 173 246 157 132 211 271 204 259 214 265 297 260 263 267 273 273 284 310 300 304 355 44 300 156 117 120 187 207 211 200 195
329 321 308 285 328 243 53 317 211 225 79 102 111 67 200 271 56 136 171 215 263 212 236 95 219 224 254 307 325 290 350 286 292 283 294 175 253 126 116 46 21 182 207 214 193
325 309 292 193 228 325 289 287 229 231 82 113 130 165 192 190 132 128 185 208 333 244 229 280 282 278 330 307 278 300 252 231 242 270 273 246 288 295 55 7 344 345 244 205 198
328 294 213 300 17 328 283 227 237 38 173 78 54 199 219 143 138 198 181 192 255 241 173 180 216 214 273 281 174 220 246 254 224 221 248 100 293 302 50 3 350 328 289 208 200
334 171 191 289 307 291 247 236 61 73 61 108 38 142 174 212 119 159 188 203 191 263 268 263 167 184 55 11 338 351 326 297 285 268 285 113 267 48 24 17 6 356 333 195 193
324 178 197 45 38 243 254 334 50 30 4 348 193 200 139 150 266 185 245 40 23 322 322 210 130 134 44 344 316 16 264 2 294 250 263 276 138 256 61 31 22 26 37 166 187
259 212 76 332 282 254 261 71 86 358 330 283 2 328 162 102 212 206 206 75 78 15 307 53 277 172 93 245 208 289 349 257 214 267 266 245 271 282 19 5 10 21 18 28 178
238 232 67 318 258 240 352 69 105 69 337 327 58 142 76 69 345 156 88 102 7 50 331 320 263 187 247 280 337 265 237 213 293 294 297 270 218 55 22 0 355 7 19 353 302
297 237 41 284 235 317 148 32 328 105 141 121 341 14 23 12 35 149 149 29 12 307 303 24 309 287 328 62 294 296 324 272 283 233 238 304 325 63 28 10 355 3 15 12 323
338 346 94 287 262 161 128 141 342 212 94 218 164 324 10 330 277 285 123 74 22 308 336 17 277 287 211 172 191 256 300 303 276 280 276 283 136 65 61 7 26 19 16 20 21
289 239 123 80 8 308 196 159 163 80 92 29 57 234 208 205 190 218 205 115 15 358 348 287 277 281 295 352 336 298 279 266 282 284 284 236 271 123 38 26 60 47 28 21 23
351 54 13 36 99 7 262 292 217 186 131 239 179 258 271 259 238 241 243 237 186 141 234 267 276 277 278 283 276 278 283 280 274 273 282 286 307 304 346 347 90 61 46 52 40
349 331 266 324 254 255 166 151 259 153 285 184 257 174 241 268 322 315 300 270 289 201 250 239 274 286 273 274 273 272 271 266 262 263 264 264 272 281 351 207 184 161 95 79 51
35 192 287 136 241 245 115 156 126 264 161 20 336 260 226 53 333 311 295 288 278 272 281 281 274 258 275 287 290 262 251 252 257 256 255 255 266 329 261 224 203 180 167 128 120